Regional Weather Roundup
Issued by NWS

Home | Current Version | Previous Version | Text Only | Print | Product List | Glossary Off
Versions: 1 2 3 4 5 6 7 8 9 10 11 12 13 14 15 16 17 18 19 20 21 22 23 24 25 26 27 28 29 30 31 32 33 34 35 36 37 38 39 40 41 42 43 44 45 46 47 48 49 50

000
ASUS45 KSLC 251110
RWRUT

UTAH REGIONAL WEATHER ROUNDUP
NATIONAL WEATHER SERVICE SALT LAKE CITY UT
500 AM MDT MON SEP 25 2017

UTZ001>011-023>025-251200-

NORTHERN UTAH

CITY           SKY/WX    TMP DP  RH WIND       PRES   REMARKS
BRIGHAM CITY   MOCLDY    44  40  86 N3        30.13S
DUGWAY         CLEAR     38  35  89 SE2       30.10
HILL AFB       MOCLDY    41  38  88 NE5       30.11S
LOGAN          CLOUDY    43  41  93 N3        30.12S
OGDEN          PTCLDY    41  38  89 S6        30.11S
SALT LAKE CITY MOCLDY    44  41  89 SE6       30.11S
TOOELE VALLEY  PTCLDY    37  36  93 S7        30.12S WCI  32
WENDOVER       MOCLDY    42  35  76 S3        30.11R
HEBER CITY     CLOUDY    36  36 100 CALM      30.12S
WEST JORDAN    PTCLDY    38  38 100 SW5       30.13S WCI  34

$$

UTZ011>015-024>027-251200-

CENTRAL/NORTHEAST UTAH

CITY           SKY/WX    TMP DP  RH WIND       PRES   REMARKS
PROVO AIRPORT  PTCLDY    39  38  96 CALM      30.14S
MOAB/CANYONLAN CLEAR     40  30  67 CALM      30.04S
DELTA          CLEAR     34  34 100 NE8       30.12S WCI  27
PRICE          CLEAR     33  30  88 CALM      30.07S
ROOSEVELT      CLEAR     34  32  93 CALM      30.12S
VERNAL         CLEAR     36  34  92 W6        30.10S WCI  31

$$

UTZ013>016-019>022-027-251200-

SOUTHERN UTAH

CITY           SKY/WX    TMP DP  RH WIND       PRES   REMARKS
BRYCE CANYON   CLEAR     23  21  92 W6        30.12F WCI  16
CEDAR CITY     CLEAR     31  30  96 CALM      30.08F
MILFORD        CLEAR     32  30  92 NW3       30.10S
ST GEORGE      MOSUNNY   50  30  46 S7        30.02S
HANKSVILLE     CLEAR     37  30  75 CALM      30.09S
KANAB          CLEAR     36  25  64 NE8       30.09F WCI  29
BLANDING         N/A     34  23  65 CALM      30.12R

$$

REGIONAL REPORTS     COLORADO/ARIZONA

CITY           SKY/WX    TMP DP  RH WIND       PRES   REMARKS
CRAIG, CO      CLEAR     28  25  88 CALM      30.12S
GRAND JUNCTION CLEAR     35  30  82 E3        30.06R
RIFLE, CO      CLEAR     35  32  88 E3        30.09R
MONTROSE, CO   CLEAR     34  26  72 SE8       30.10S WCI  27
CORTEZ, CO     CLEAR     28  25  88 NE7       30.06S WCI  21
PAGE, AZ       CLEAR     48  27  44 CALM      30.02S
GRAND CANYON   PTCLDY    25  14  63 NE3       30.08S
KINGMAN, AZ    CLEAR     46  26  45 E7        29.98S
FLAGSTAFF, AZ  CLEAR     26  12  55 CALM      30.06S

$$

REGIONAL REPORTS    NEVADA/IDAHO/WYOMING

CITY           SKY/WX    TMP DP  RH WIND       PRES   REMARKS
LAS VEGAS, NV  CLEAR     61  25  25 CALM      29.97S
ELY, NY        CLEAR     25  23  92 S9        30.14S WCI  15
ELKO, NV       CLOUDY    36  31  82 E5        30.12F WCI  32
POCATELLO, ID  CLOUDY    41  35  79 E3        30.11R
BURLEY, ID     MOCLDY    37  30  75 CALM      30.09R
FORT BRIDGER,  CLOUDY    36  36 100 W10       30.14S WCI  28
EVANSTON, WY   CLOUDY    34  34 100 SW7       30.13R FOG     WCI  28
ROCK SPRINGS,  CLOUDY    35  33  92 CALM      30.10S

$$



USA.gov is the U.S. government's official web portal to all federal, state and local government web resources and services.